Location: Kumla
(59.1265°N, 15.1401°E)
Time: 17:19:09
(UTC+01:00)

Transit 2A - Pass Details

Date: 11 December 2023
Orbit: 600 x 953 km, 66.7° (Epoch: 27 February)

Event Time Altitude Azimuth Distance (km) Brightness Sun altitude
Rises 14:12:18 0° 198° (SSW) 3,113 11.1 3.0°
Reaches altitude 10° 14:14:52 10° 190° (S) 2,141 9.8 2.8°
Maximum altitude 14:19:14 36° 124° (SE) 1,038 6.8 2.5°
Drops below altitude 10° 14:23:21 10° 58° (ENE) 2,005 7.6 2.2°
Sets 14:25:40 0° 50° (NE) 2,888 8.3 2.0°
